Weather History for Florence Mem AP, Arkadelphia,, AR

Change the Weather History Date:

Tuesday, April 8, 2014

  Actual Average Record
Temperature  
Mean Temperature 56 °F -  
Max Temperature 63 °F - - ()
Min Temperature 48 °F - - ()
Degree Days  
Heating Degree Days 10    
Growing Degree Days 6 (Base 50)    
Moisture  
Dew Point 44 °F    
Average Humidity 68    
Maximum Humidity 96    
Minimum Humidity 36    
Precipitation  
Precipitation 0.00 in - - ()
Sea Level Pressure  
Sea Level Pressure 29.99 in    
Wind  
Wind Speed 6 mph (NW)    
Max Wind Speed 29 mph    
Max Gust Speed 44 mph    
Visibility 10 miles    
Events Rain , Thunderstorm    
T = Trace of Precipitation, MM = Missing Value Source: NWS Daily Summary

Daily Weather History Graph

Daily Weather History Graph

Search for Another Location

Airport:

Trip Planner

Search our weather history database for the weather conditions in past years. The results will help you decide how hot, cold, wet, or windy it might be!

Date:

Astronomy

Apr. 08, 2014 Rise Set
Actual Time 6:50 AM CDT 7:38 PM CDT
Civil Twilight 6:24 AM CDT 8:03 PM CDT
Nautical Twilight 5:54 AM CDT 8:34 PM CDT
Astronomical Twilight 5:23 AM CDT 9:04 PM CDT
Moon 1:47 PM CDT (4/8) 2:47 AM CDT (4/8)
Length of Visible Light 13h 39m
Length of Day
12h 48m
Waxing Gibbous, 63% of the Moon is Illuminated
Apr 8
Waxing Gibbous
Apr 15
Full
Apr 22
Last Quarter
Apr 29
New
May 6
First Quarter

Hourly Weather History & Observations

Time (CDT) Temp. Dew Point Humidity Pressure Visibility Wind Dir Wind Speed Gust Speed Precip Events Conditions
12:56 AM 50.0 °F 48.9 °F 96% 29.94 in 10.0 mi WSW 4.6 mph - N/A   Clear
1:56 AM 50.9 °F 48.9 °F 93% 29.94 in 10.0 mi Calm Calm - N/A   Clear
2:56 AM 50.9 °F 48.9 °F 93% 29.91 in 10.0 mi Calm Calm - N/A   Clear
3:56 AM 50.9 °F 48.9 °F 93% 29.89 in 10.0 mi Calm Calm - 0.00 in   Partly Cloudy
4:56 AM 50.9 °F 48.9 °F 93% 29.90 in 10.0 mi Calm Calm - N/A   Scattered Clouds
5:56 AM 50.0 °F 48.9 °F 96% 29.91 in 10.0 mi SW 5.8 mph - N/A   Mostly Cloudy
6:56 AM 50.0 °F 48.9 °F 96% 29.92 in 10.0 mi Calm Calm - N/A   Mostly Cloudy
7:56 AM 50.9 °F 47.8 °F 89% 29.94 in 10.0 mi West 3.5 mph - N/A   Clear
8:56 AM 54.9 °F 48.9 °F 80% 29.95 in 10.0 mi NW 6.9 mph - N/A   Clear
9:56 AM 59.9 °F 46.9 °F 62% 29.95 in 10.0 mi NNW 10.4 mph - N/A   Partly Cloudy
10:56 AM 61.9 °F 46.9 °F 58% 29.98 in 10.0 mi WNW 10.4 mph - N/A   Scattered Clouds
11:56 AM 57.9 °F 43.9 °F 60% 29.98 in 10.0 mi Variable 6.9 mph - 0.00 in Rain Light Rain
12:56 PM 63.0 °F 45.0 °F 52% 29.96 in 10.0 mi NW 15.0 mph - 0.00 in   Clear
1:14 PM 62.6 °F 44.6 °F 52% 29.93 in 10.0 mi WNW 18.4 mph - 0.00 in Rain , Thunderstorm Light Thunderstorms and Rain
1:47 PM 57.2 °F 46.4 °F 67% 29.92 in 10.0 mi NW 6.9 mph - 0.00 in   Clear
1:56 PM 57.9 °F 46.9 °F 67% 29.96 in 10.0 mi NW 6.9 mph - 0.00 in   Clear
2:56 PM 57.9 °F 41.9 °F 55% 30.01 in 10.0 mi NW 28.8 mph 43.7 mph 0.00 in Rain , Thunderstorm Light Thunderstorms and Rain
3:12 PM 53.6 °F 46.4 °F 77% 29.99 in 3.0 mi NNW 17.3 mph - 0.00 in Rain Light Rain
3:24 PM 53.6 °F 44.6 °F 72% 29.98 in 10.0 mi NNW 13.8 mph - 0.00 in Thunderstorm Scattered Clouds
3:39 PM 55.4 °F 44.6 °F 67% 29.98 in 10.0 mi North 11.5 mph - 0.00 in   Partly Cloudy
3:56 PM 56.8 °F 43.0 °F 60% 30.01 in 10.0 mi NNW 9.2 mph - 0.00 in   Clear
4:56 PM 61.0 °F 38.8 °F 44% 30.01 in 10.0 mi NNW 13.8 mph - N/A   Partly Cloudy
5:56 PM 61.9 °F 34.9 °F 36% 30.03 in 10.0 mi NNW 17.3 mph - N/A   Partly Cloudy
6:56 PM 59.9 °F 34.9 °F 39% 30.06 in 10.0 mi NW 11.5 mph - N/A   Clear
7:56 PM 57.9 °F 34.9 °F 42% 30.10 in 10.0 mi NW 6.9 mph - N/A   Clear
8:56 PM 54.9 °F 36.0 °F 49% 30.13 in 10.0 mi NW 5.8 mph - N/A   Clear
9:56 PM 50.9 °F 38.8 °F 63% 30.16 in 10.0 mi Calm Calm - N/A   Clear
10:56 PM 48.9 °F 37.9 °F 66% 30.17 in 10.0 mi WNW 4.6 mph - N/A   Clear
11:56 PM 50.0 °F 36.9 °F 61% 30.19 in 10.0 mi NW 5.8 mph - N/A   Clear